SCP
0 0 0 0 0 0 0 0 0 0 0 0 0 0 0 0 0 0 0 0 0 0 0 0 0 0 0 0 0 0 0 0 0 0 0 0 0 0 0 0 0 0 0 0
0 0 0 0 0 0 0 0 0 0 0 0 0 0 0 0 0 0 0 0 0 0 0 0 0 0 0 0 0 0 0 0 0 0 0 0 0 0 0 0 0 0 0 0
0 0 0 0 0 0 0 0 0 0 0 0 0 0 0 0 0 0 0 0 0 0 0 0 0 0 0 0 0 0 0 0 0 0 0 0 0 0 0 0 0 0 0 0
0 0 0 0 0 0 0 0 0 0 0 0 0 0 0 0 0 0 0 0 0 0 0 0 0 0 0 0 0 0 0 0 0 0 0 0 0 0 0 0 0 0 0 0
0 0 0 0 0 0 0 0 0 0 0 0 0 0 0 0 0 0 0 0 0 0 0 0 0 0 0 0 0 0 0 0 0 0 0 0 0 0 0 0 0 0 0 0
0 0 0 0 0 0 0 0 0 0 0 0 0 0 0 0 0 0 0 0 0 0 0 0 0 0 0 0 0 0 0 0 0 0 0 0 0 0 0 0 0 0 0 0
0 0 0 0 0 0 0 0 0 0 0 0 0 0 0 0 0 0 0 0 0 0 0 0 0 0 0 0 0 0 0 0 0 0 0 0 0 0 0 0 0 0 0 0
0 0 0 0 0 0 0 0 0 0 0 0 0 0 0 0 0 0 0 0 0 0 0 0 0 0 0 0 0 0 0 0 0 0 0 0 0 0 0 0 0 0 0 0
0 0 0 0 0 0 0 0 0 0 0 0 0 0 0 0 0 0 0 0 0 0 0 0 0 0 0 0 0 0 0 0 0 0 0 0 0 0 0 0 0 0 0 0
0 0 0 0 0 0 0 0 0 0 0 0 0 0 0 0 0 0 0 0 0 0 0 0 0 0 0 0 0 0 0 0 0 0 0 0 0 0 0 0 0 0 0 1
0 0 0 0 0 0 0 0 0 0 0 0 0 0 0 0 0 0 0 0 0 0 0 0 0 0 0 0 0 0 0 0 0 0 0 0 0 0 0 0 0 0 0 1
0 0 0 0 0 0 0 0 0 0 0 0 0 0 0 0 0 0 0 0 0 0 0 0 0 0 0 0 0 0 0 0 0 0 0 0 0 0 0 0 0 0 0 0
0 0 0 0 0 0 0 0 0 0 0 0 0 0 0 0 0 0 0 0 0 0 0 0 0 0 0 0 0 0 0 0 0 0 0 0 0 0 0 0 0 0 0 0
0 0 0 0 0 0 0 0 0 0 0 0 0 0 0 0 0 0 0 0 0 0 0 0 0 0 0 0 0 0 0 0 0 0 0 0 0 0 0 0 0 0 0 0
0 0 0 0 0 0 0 0 0 0 0 0 0 0 0 0 0 0 0 0 0 0 0 0 0 0 0 0 0 0 0 0 0 0 0 0 0 0 0 0 0 0 0 0
0 0 0 0 0 0 0 0 0 0 0 0 0 0 0 0 0 0 0 0 0 0 0 0 0 0 0 0 0 0 0 0 0 0 0 0 0 0 0 0 0 0 0 0
0 0 0 0 0 0 0 0 0 0 0 0 0 0 0 0 0 0 0 0 0 0 0 0 0 0 0 0 0 0 0 0 0 0 0 0 0 0 0 0 0 0 0 0
0 0 0 0 0 0 0 0 0 0 0 0 0 0 0 0 0 0 0 0 0 0 0 0 0 0 0 0 0 0 0 0 0 0 0 0 0 0 0 0 0 0 0 0
0 0 0 0 0 0 0 0 0 0 0 0 0 0 0 0 0 0 0 0 0 0 0 0 0 0 0 0 0 0 0 0 0 0 0 0 0 0 0 0 0 0 0 0
0 0 0 0 0 0 0 0 0 0 0 0 0 0 0 0 0 0 0 0 0 0 0 0 0 0 0 0 0 0 0 0 0 0 0 0 0 0 0 0 0 0 0 0
0 0 0 0 0 0 0 0 0 0 0 0 0 0 0 0 0 0 0 0 0 0 0 0 0 0 0 0 0 0 0 0 0 0 0 0 0 0 0 0 0 0 0 0
0 0 0 0 0 0 0 0 0 0 0 0 0 0 0 0 0 0 0 0 0 0 0 0 0 0 0 0 0 0 0 0 0 0 0 0 0 0 0 0 0 0 0 0
0 0 0 0 0 0 0 0 0 0 0 0 0 0 0 0 0 0 0 0 0 0 0 0 0 0 0 0 0 0 0 0 0 0 0 0 0 0 0 0 0 0 0 0
0 0 0 0 0 0 0 0 0 0 0 0 0 0 0 0 0 0 0 0 0 0 0 0 0 0 0 0 0 0 0 0 0 0 0 0 0 0 0 0 0 0 0 0
0 0 0 0 0 0 0 0 0 0 0 0 0 0 0 0 0 0 0 0 0 0 0 0 0 0 0 0 0 0 0 0 0 0 0 0 0 0 0 0 0 0 0 0
0 0 0 0 0 0 0 0 0 0 0 0 0 0 0 0 0 0 0 0 0 0 0 0 0 0 0 0 0 0 0 0 0 0 0 0 0 0 0 0 0 0 0 0
Wind_Speed
1 2 2 1 2 2 4 4 2 0 2 2 3 3 3 2 4 5 4 4 5 4 4 4 5 5 5 5 5 5 5 4 4 2 2 1 1 1 1 0 1 1 1 1
3 2 1 1 0 1 3 3 1 1 3 1 1 3 3 3 4 5 5 5 5 5 4 4 4 5 5 5 5 5 4 4 4 3 2 1 1 0 1 0 0 1 1 1
3 2 1 2 2 2 0 2 1 1 2 1 1 3 3 2 2 3 4 4 4 5 5 5 5 5 5 5 5 4 5 4 4 4 2 2 2 1 2 1 1 1 1 1
3 2 0 2 1 1 0 2 0 1 2 0 2 3 4 4 3 3 4 4 4 4 4 4 5 5 5 5 4 5 5 4 4 4 4 4 3 2 2 1 1 1 2 2
2 2 1 1 2 2 1 1 0 1 1 1 1 4 3 3 4 4 4 4 4 4 4 5 5 5 4 4 4 4 4 4 4 4 4 4 3 2 1 2 2 2 2 2
2 1 2 1 2 0 1 1 1 1 2 3 1 4 3 3 4 3 3 4 3 4 4 4 4 4 4 4 4 4 5 4 4 4 4 5 4 4 3 3 3 2 2 2
2 2 2 1 0 1 1 2 0 1 2 2 1 4 5 0 1 2 3 3 4 4 5 5 6 6 5 5 5 4 5 4 4 4 4 4 4 5 5 4 3 3 2 2
1 1 1 2 2 1 1 2 1 2 2 1 2 5 2 2 1 1 2 3 4 5 5 5 5 5 5 5 4 4 4 3 3 3 3 3 4 3 3 4 4 4 3 3
1 1 1 1 2 2 1 1 2 1 1 3 4 4 4 1 1 2 3 4 5 5 5 5 5 5 4 4 3 3 3 3 2 2 2 2 3 3 3 3 4 4 3 3
0 1 1 1 1 2 2 1 2 2 2 4 3 4 3 3 4 5 5 6 6 6 5 5 5 5 4 3 3 2 2 1 1 1 1 1 2 2 3 3 4 4 4 3
1 1 1 2 3 2 3 2 2 1 2 4 4 2 1 2 3 5 6 5 6 6 6 5 5 4 4 3 3 2 2 1 0 0 1 2 2 2 3 3 3 4 3 3
1 1 2 2 1 2 3 3 4 3 3 3 4 4 3 2 3 4 5 5 5 5 5 5 5 5 4 3 2 2 1 0 0 1 2 2 2 2 3 3 3 3 3 3
3 2 1 2 3 3 4 4 4 2 1 4 5 4 3 1 2 4 5 5 5 5 5 5 5 4 4 3 2 1 1 1 1 1 2 2 2 2 3 3 3 3 3 4
2 4 5 4 2 2 5 6 7 6 5 7 9 9 5 4 4 4 5 5 6 6 5 5 5 4 3 3 2 2 1 1 1 1 2 2 2 2 3 3 3 3 3 4
3 4 4 6 5 5 7 9 10 12 11 10 9 10 11 8 7 6 5 5 6 6 6 5 5 4 3 3 3 2 2 2 2 2 2 3 3 3 3 3 3 3 4 4
3 4 2 4 3 5 9 13 14 14 14 15 15 15 10 7 5 5 6 6 7 7 7 6 5 4 4 4 3 3 3 2 2 3 3 3 3 3 3 3 3 4 4 4
4 4 3 4 2 6 11 11 13 10 11 11 13 10 3 4 5 6 6 7 7 7 6 6 5 5 4 4 3 3 3 2 3 3 3 3 3 3 3 3 4 4 5 5
5 5 3 3 3 9 2 2 5 9 10 11 11 8 6 6 4 4 5 6 6 6 5 5 4 4 4 3 3 3 3 3 3 4 4 3 3 4 4 4 5 5 5 5
5 5 4 3 6 10 5 3 5 7 7 8 11 10 5 2 3 3 3 4 5 5 4 3 3 3 3 3 3 3 3 3 4 4 4 4 4 4 4 5 6 5 5 6
3 5 5 5 6 8 1 3 3 3 5 3 6 6 4 4 4 1 1 2 3 2 2 2 2 2 3 2 2 3 3 4 4 4 4 4 4 5 6 6 6 5 5 6
6 6 8 9 9 10 2 4 6 5 2 2 4 5 6 6 3 1 0 2 2 2 2 2 2 2 2 2 3 4 4 5 4 4 4 5 5 5 6 6 6 6 6 6
9 9 9 8 9 10 5 8 8 3 1 2 3 4 6 6 4 3 3 3 3 2 2 2 3 3 3 3 4 5 5 5 4 4 5 5 6 5 5 6 6 6 6 7
9 8 6 9 8 2 5 6 4 2 3 3 4 5 6 6 6 5 5 4 4 4 3 3 4 4 3 4 5 6 5 4 4 5 5 5 6 5 5 6 7 6 6 6
6 5 6 9 11 8 8 9 8 7 7 6 5 5 5 7 7 6 5 5 5 5 4 4 4 5 4 4 5 6 5 4 5 6 6 5 6 6 6 5 5 6 6 6
6 7 7 11 11 9 9 10 9 8 8 7 7 7 7 7 8 8 7 6 5 5 4 4 5 5 6 5 5 6 5 5 6 6 6 6 6 6 6 6 6 7 8 8
9 10 10 11 9 8 8 5 6 7 8 8 8 7 7 8 8 8 7 6 5 5 5 5 6 6 6 5 6 6 5 6 6 6 6 5 5 5 6 6 7 9 11 13
Wind_Direction
73 124 131 181 257 277 211 203 211 324 350 242 217 251 260 202 201 203 201 196 194 197 183 171 169 171 168 162 159 157 155 156 162 166 178 175 166 164 140 98 18 356 354 359
134 94 20 319 204 191 191 193 183 10 12 311 243 272 261 224 216 214 207 204 199 186 168 167 167 169 176 173 171 166 166 168 176 173 164 142 107 32 334 191 304 297 293 299
118 46 344 168 130 125 132 221 226 315 338 47 274 240 209 204 208 212 219 216 211 201 191 176 174 180 184 183 182 176 176 180 181 172 160 157 168 190 226 228 238 254 266 262
69 10 245 149 79 304 319 359 267 265 223 172 293 251 202 201 209 202 209 211 212 201 194 182 178 180 184 187 183 182 179 183 184 185 193 197 208 214 240 260 264 266 264 265
73 23 24 102 1 316 55 358 277 248 221 231 221 243 227 190 224 217 207 207 208 196 186 178 179 178 176 172 175 179 176 180 186 192 202 208 220 232 245 255 258 264 253 252
81 47 358 360 1 355 163 196 164 197 221 240 234 243 241 194 224 206 193 194 185 171 166 159 156 158 154 157 166 170 173 177 183 192 205 216 222 230 236 249 257 257 251 248
71 83 40 321 106 122 266 220 158 198 228 247 95 249 254 96 244 227 198 182 171 161 158 153 152 153 152 161 164 165 171 175 182 193 208 220 228 235 239 249 257 259 254 248
161 167 38 357 323 264 243 286 285 255 258 278 208 249 273 59 311 256 216 173 160 159 155 151 150 149 149 156 160 162 169 174 178 196 215 225 225 232 241 247 254 259 258 261
215 168 62 2 339 284 187 182 340 305 296 267 245 268 270 163 204 182 172 165 164 159 157 152 147 143 143 145 146 154 163 166 171 190 212 218 218 227 237 243 249 256 255 258
259 209 278 323 199 75 339 150 193 217 252 267 268 258 262 208 197 185 183 178 169 162 158 155 150 144 139 134 131 130 135 149 163 191 219 226 225 234 242 246 250 255 256 252
221 188 187 206 219 214 172 188 212 202 282 273 279 263 56 248 213 200 193 187 179 172 168 164 156 149 141 135 132 127 124 129 146 232 254 226 232 236 241 244 253 257 255 254
173 219 224 221 72 327 260 232 213 241 229 244 273 280 89 267 254 225 205 192 189 182 177 172 164 157 152 149 149 151 153 188 282 290 280 259 243 239 245 253 263 264 265 267
181 215 237 186 182 193 226 212 213 237 231 219 240 257 100 274 245 221 212 200 190 185 179 175 172 173 173 175 179 188 204 255 297 286 275 269 255 249 256 267 272 273 274 275
199 235 245 263 314 187 223 219 208 204 219 233 238 262 262 258 247 228 216 207 196 191 188 186 187 189 189 196 206 218 236 259 274 269 268 272 275 275 278 282 277 277 275 274
223 247 249 268 276 259 251 242 221 220 232 245 256 257 267 270 260 246 231 213 203 200 199 200 206 206 206 211 222 233 244 252 257 261 267 277 285 286 282 281 280 280 278 276
217 242 249 266 254 259 263 251 237 235 240 247 263 269 272 278 264 245 230 218 215 213 210 211 216 221 222 226 233 238 247 255 253 257 266 276 277 278 278 282 284 281 279 278
195 205 228 260 292 287 260 240 219 216 220 226 240 253 261 251 247 243 233 223 223 221 218 218 221 225 230 234 236 242 251 252 252 260 269 272 274 279 285 289 284 281 281 281
196 193 225 271 273 248 258 93 212 225 240 230 247 263 268 269 279 268 244 232 229 224 222 225 229 233 234 231 234 240 243 243 250 257 263 268 273 278 284 283 280 280 278 276
222 206 213 229 258 273 271 208 190 212 256 228 236 251 260 271 260 240 229 241 239 235 234 239 235 227 220 220 222 226 236 243 251 258 265 270 273 276 277 277 279 281 279 278
186 224 227 220 243 254 261 133 161 204 256 199 212 231 215 192 232 219 148 232 239 235 234 236 223 215 217 213 213 228 241 248 255 264 270 272 268 267 270 274 279 280 278 278
174 195 217 227 243 264 254 143 160 222 309 131 198 211 194 209 250 357 242 231 219 217 216 210 210 219 226 218 219 236 246 253 263 268 269 270 269 268 271 274 273 274 275 275
188 188 200 205 227 250 157 158 202 259 30 196 213 211 210 228 251 247 240 236 230 225 220 217 220 231 233 224 227 242 251 262 267 266 267 269 271 271 270 271 274 273 272 274
215 212 206 210 230 313 177 214 246 271 249 242 235 229 222 236 247 247 242 238 237 236 232 226 230 241 241 230 234 249 260 265 263 264 266 270 273 272 269 269 272 274 271 270
223 220 230 248 257 259 252 252 258 253 256 259 253 245 231 241 248 247 246 245 240 236 231 229 234 244 250 244 246 255 264 261 258 262 269 272 272 273 272 267 265 266 266 269
230 192 225 251 266 277 258 245 250 251 251 253 252 247 244 248 251 249 250 250 246 240 235 233 239 248 257 255 256 259 257 254 256 262 266 268 267 269 273 270 265 265 266 267
216 214 224 249 251 248 263 261 249 246 249 249 249 251 247 241 247 249 251 251 246 242 237 237 244 250 259 260 262 261 254 249 253 259 263 264 266 269 271 276 279 260 257 271